Regional Weather Roundup
Issued by NWS

Home | Current Version | Previous Version | Graphics & Text | Print | Product List | Glossary On
Versions: 1 2 3 4 5 6 7 8 9 10 11 12 13 14 15 16 17 18 19 20 21 22 23 24 25 26 27 28 29 30 31 32 33 34 35 36 37 38 39 40 41 42 43 44 45 46 47 48 49 50
000
ASUS43 KFSD 201510
RWRSD

WEATHER ROUNDUP FOR SOUTH DAKOTA
NATIONAL WEATHER SERVICE SIOUX FALLS SD
1000 AM CDT SAT SEP 20 2014

NOTE: "FAIR" INDICATES FEW OR NO CLOUDS BELOW 12,000 FEET WITH NO
SIGNIFICANT WEATHER AND/OR OBSTRUCTIONS TO VISIBILITY.


SDZ001>005-009-010-012>017-201600-
NORTHWEST AND NORTH CENTRAL SOUTH DAKOTA

CITY           SKY/WX    TMP DP  RH WIND       PRES   REMARKS
BUFFALO          N/A     66  45  46 W23       29.99R
FAITH            N/A     67  49  52 NW18G31   30.00R
MOBRIDGE       MOSUNNY   63  52  67 W6        29.90R
$$

SDZ012>016-024>037-041>051-057-063-072>074-201600-
SOUTHWEST AND SOUTH CENTRAL SOUTH DAKOTA

CITY           SKY/WX    TMP DP  RH WIND       PRES   REMARKS
RAPID CTY ARPT SUNNY     69  48  47 NW12      30.09R
PIERRE         SUNNY     66  52  60 W12       29.95R
CUSTER         SUNNY     63  42  46 NW10G25   30.20R
ELLSWORTH AFB  SUNNY     70  48  45 N21       30.09R
PHILIP         SUNNY     67  53  61 W9        30.02R
PINE RIDGE     SUNNY     63  53  70 W5        30.11S
WINNER         FAIR      70  55  59 W10       30.00R
$$

SDZ004>011-016>023-039-040-201600-
NORTHEAST SOUTH DAKOTA

CITY           SKY/WX    TMP DP  RH WIND       PRES   REMARKS
ABERDEEN       SUNNY     66  56  70 W6        29.89S
WATERTOWN      SUNNY     64  58  80 W7        29.90R
SISSETON         N/A     67  57  70 NW7       29.86R
$$

SDZ017-020-022-023-036>040-048>070-201600-
SOUTHEAST SOUTH DAKOTA

CITY           SKY/WX    TMP DP  RH WIND       PRES   REMARKS
SIOUX FALLS    MOSUNNY   70  59  68 NW5       29.91R
HURON          SUNNY     68  55  63 W5        29.92R
CHAMBERLAIN    SUNNY     65  55  71 W8        29.97R
MITCHELL       SUNNY     67  57  70 NW3       29.94R
YANKTON        SUNNY     70  57  64 NW8       29.93R
$$

ABBREVIATIONS USED IN REMARKS
   TC - TEMPERATURE IN CELSIUS
  WCI - WIND CHILL INDEX
   HX - HEAT INDEX
  VSB - VISIBILITY




USA.gov is the U.S. government's official web portal to all federal, state and local government web resources and services.